sat.trackr.live / text

‹ back to catalog

STARLINK-6285

NORAD 56405 · 2023-061AH

PAYLOAD ACTIVE UNKNOWN

§ Identity

Operator
Country
US
Launch date
2023-05-04
Launch site
AFETR
Launch vehicle
Mass (kg)
RCS (m²)

Purposes: comms

External: N2YO · Heavens-Above · Gunter

§ Orbital elements

Epoch: 2026-05-25T04:22:03.610272Z

Period
94.27 min
Inclination
43.0045°
Eccentricity
0.0001685
Mean motion
15.27576975 rev/d
Perigee alt
481.9 km
Apogee alt
484.2 km
Semi-major
6,861.2 km
B*
2.2528e-5
RAAN
115.0010°
Arg perigee
267.7239°
Mean anomaly
92.3420°
Rev number
16,857

§ Raw data

STARLINK-62851 56405U 23061AH  26145.18198623  .00000358  00000+0  22528-4 0  99962 56405  43.0045 115.0010 0001685 267.7239  92.3420 15.27576975168573

JSON: /api/v1/satellites/56405 · /tle

For live sub-satellite position, see the globe view (requires WebGL).

§ Visibility from observer

Set your observer location to see the next 7 days of passes ≥ 10°. The values pass through the URL so the page stays shareable.

No JS? Fill the form by hand. The geolocation button needs JavaScript.